OBJECT C, 44881

Orbit data source: Space-Track

You're viewing an Uncataloged Satellite

Recently launched and/or uncataloged satellites may have evolving metadata. Metadata may include but not limited to: Owner, Maufacturer, Bus, Motor, and Mission.

OBJECT C, 44881 is a satellite in SSO that was launched on Fri, 20 Dec 2019 UTC via a CHANG ZHENG 4B launch vehicle from the Taiyaun Space Center, China (TSC). Unknown objects in Earth's orbit typically refer to objects detected orbiting the Earth but have not yet been identified or cataloged. These objects could be anything from previously untracked satellites, spent rocket stages, debris from satellite collisions, or even natural meteoroids temporarily captured by Earth's gravity.

Loading next visibility...
Identifier
44881, 2019-093C
Orbit
SSO
Country
Flag of TBDTBD
Related business
Flag of CNSun Yat-sen University (CN)
Manufacturer
DFH Shenzhen
Mission
Operational Commercial Sci/Com
Bus & Motor
TIANQIN, Unknown motor
Mass
35 kg wet, 35 kg dry
Launch date (UTC)
2019-12-20 (6 years ago)
Launch vehicle
CHANG ZHENG 4B
Launch site
Taiyaun Space Center, China (TSC)
Object type
Unknown
Shape & HBR
Box, 0.1 m
Radar Cross Section
0.105 m², Medium (>0.1 m² and < 1m²)

Expand to show TLE details & history
Last TLE update: 5 days ago

TLE from 5 days ago
0 OBJECT C
1 44881U 19093C   26155.25525791  .00000665  00000-0  81098-4 0  9999
2 44881  97.7535 227.8023 0014679 125.4104 234.8485 14.86497093349495
Epoch: 2026-06-04T06:07Z
TLE epoch observation values (Epoch: 2026-06-04T06:07:34.283Z)
Latitude
-0.00004°
Longitude
-116.79269°
Altitude
617.842 km
Speed
7.547 km/s
True Right ascension
15h 11m 12s
True Declination
0° 00' 00"
Sunlit
Object was in full shadow at epoch
Visualization orbit readout
Latitude
Unknown
Longitude
Unknown
Altitude
Unknown
Speed
Unknown
Apparent Right ascension
Unknown
Apparent Declination
Unknown
Sunlit
N/A
Visualization observer readout
Local Sidereal Time
01:54:04
Azimuth
Unknown
Elevation
Unknown
Doppler factor
Unknown
Orbital elements
Apogee altitude
616.168 km
Perigee altitude
595.664 km
Semi-major axis
6,984.053 km
Eccentricity
0.00147
Inclination
97.7535°
RAAN
227.8023°
Arg. of periapsis
125.4104°
True anomaly
234.71111°
Mean anomaly
234.8485°
Eccentric anomaly
234.77979°
Mean motion
3.71862 °/min
Orbital period
96.81 mins
BSTAR
0.000081098
Loading maneuver chart data...
Computing Atmospheric mass density...
Loading historical data...
Loading historical data...
Loading historical data...
Loading historical data...
Loading historical data...
Loading historical data...
Loading historical data...

Documentation

Showing up to 5 results
|